Location: Phoenix
(33.4480°N, 112.0730°W)
Time: 05:52:16
(UTC-07:00)

ISS - All Passes

Search period start: 31 October 2014 00:00
Search period end: 10 November 2014 00:00
Orbit: 412 x 417 km, 51.6° (Epoch: 31 October)

Date Brightness Start Highest point End Pass type
(mag) Time Alt. Az. Time Alt. Az. Time Alt. Az.
31 Oct - 09:09:52 10° SW 09:13:08 62° SE 09:16:25 10° NE daylight
31 Oct - 10:48:16 10° WNW 10:50:06 14° NNW 10:51:56 10° N daylight
31 Oct - 15:42:43 10° N 15:44:37 14° NNE 15:46:32 10° ENE daylight
31 Oct - 17:18:17 10° NW 17:21:35 60° SW 17:24:51 10° SE daylight
01 Nov - 08:21:08 10° SSW 08:24:03 29° SE 08:26:59 10° ENE daylight
01 Nov - 09:58:06 10° W 10:00:44 22° NW 10:03:24 10° NNE daylight
01 Nov - 16:29:06 10° NW 16:32:25 65° NE 16:35:43 10° SE daylight
02 Nov - 07:33:00 10° SSE 07:34:59 15° SE 07:36:59 10° E daylight
02 Nov - 09:08:18 10° WSW 09:11:25 37° NW 09:14:32 10° NNE daylight
02 Nov - 15:40:04 10° NNW 15:43:08 33° NE 15:46:11 10° ESE daylight
02 Nov - 17:17:19 10° W 17:19:37 17° SW 17:21:54 10° S daylight
03 Nov - 08:18:50 10° SW 08:22:07 75° NW 08:25:26 10° NE daylight
03 Nov - 09:58:53 10° NW 09:59:18 10° NNW 09:59:43 10° NNW daylight
03 Nov - 14:51:12 10° NNW 14:53:45 20° NE 14:56:16 10° E daylight
03 Nov - 16:27:26 10° WNW 16:30:29 34° SW 16:33:31 10° SSE daylight
04 Nov - 07:29:40 10° SSW 07:32:52 51° SE 07:36:05 10° ENE daylight
04 Nov - 09:07:40 10° WNW 09:09:45 16° NNW 09:11:50 10° N daylight
04 Nov - 14:02:38 10° N 14:04:14 13° NNE 14:05:49 10° ENE daylight
04 Nov - 15:37:56 10° NW 15:41:15 73° SW 15:44:33 10° SE daylight
05 Nov - 06:40:54 10° S 06:43:38 24° SE 06:46:24 10° ENE daylight
05 Nov - 08:17:27 10° W 08:20:15 25° NW 08:23:03 10° NNE daylight
05 Nov - 14:48:38 10° NW 14:51:54 53° NE 14:55:09 10° ESE daylight
05 Nov - 16:27:28 10° WSW 16:28:11 11° SW 16:28:55 10° SW daylight
06 Nov - 05:52:56 10° SSE 05:54:26 13° SE 05:55:56 10° E visible
06 Nov - 07:27:36 10° WSW 07:30:47 44° NW 07:33:58 10° NE daylight
06 Nov - 13:59:30 10° NNW 14:02:27 28° NE 14:05:23 10° E daylight
06 Nov - 15:36:25 10° WNW 15:38:59 21° SW 15:41:32 10° S daylight
07 Nov - 06:38:03 10° SW 06:41:21 89° SE 06:44:40 10° NE daylight
07 Nov - 08:17:16 10° NW 08:18:26 11° NNW 08:19:35 10° N daylight
07 Nov - 13:10:33 10° NNW 13:12:52 17° NNE 13:15:11 10° ENE daylight
07 Nov - 14:46:31 10° WNW 14:49:40 42° SW 14:52:49 10° SSE daylight
08 Nov - 05:48:50 10° SSW 05:51:57 41° SE 05:55:05 10° ENE visible
08 Nov - 07:26:26 10° WNW 07:28:45 18° NNW 07:31:04 10° NNE daylight
08 Nov - 12:22:02 10° N 12:23:10 11° NNE 12:24:18 10° NE daylight
08 Nov - 13:56:56 10° NW 14:00:15 90° N 14:03:34 10° SE daylight
09 Nov - 05:00:04 10° S 05:02:35 20° SE 05:05:06 10° ENE visible
09 Nov - 06:36:10 10° W 06:39:06 29° NW 06:42:03 10° NNE daylight
09 Nov - 13:07:32 10° NNW 13:10:44 43° NE 13:13:55 10° ESE daylight
09 Nov - 14:45:29 10° W 14:47:05 13° SW 14:48:40 10° SSW daylight
